Wind_Speed
9 9 9 8 7 8 12 6 8 18 17 13 12 12 12 13 12 11 9 9 9 9 8 8 8 7 6 6 6 7 7 6 5 5 5 4 4 4 4 4 4 4 3 3 3 3 3 3 3
8 8 8 8 6 9 12 13 14 18 18 16 14 14 14 14 14 13 12 12 10 10 9 9 8 7 7 7 7 7 7 7 6 6 6 5 5 5 5 4 4 4 4 4 4 4 4 4 4
8 8 8 7 6 7 10 16 19 21 19 17 16 16 15 14 13 14 14 14 12 11 10 9 9 8 7 7 7 7 7 7 7 7 6 6 6 6 5 5 5 5 6 6 5 5 5 5 5
8 7 6 6 6 6 13 21 23 22 19 17 16 17 15 16 15 15 15 14 13 12 11 10 9 9 8 8 8 8 7 7 7 7 6 6 6 6 6 7 7 7 7 7 7 6 7 7 7
8 6 6 9 8 10 18 22 20 19 18 17 17 19 15 15 16 16 16 15 14 13 12 11 10 9 9 9 9 8 7 7 7 7 7 7 7 8 8 8 8 9 9 9 9 8 8 8 8
7 6 9 10 9 15 18 19 17 16 17 18 18 18 15 15 16 15 16 16 16 14 13 12 11 10 10 9 9 8 8 8 8 8 8 8 8 9 9 9 9 9 10 9 9 9 9 9 9
7 4 6 6 11 14 17 18 16 16 17 18 17 18 15 17 16 16 17 17 17 15 14 14 13 12 11 10 10 9 9 9 9 9 9 9 10 9 9 10 10 10 10 9 9 9 9 9 9
6 5 4 5 11 13 16 17 16 16 17 17 18 19 16 15 16 17 18 19 18 16 17 15 15 13 12 12 11 10 10 10 10 10 10 10 10 10 10 10 10 10 9 9 9 8 8 8 9
6 7 4 6 12 13 15 16 17 18 18 17 18 18 15 15 16 18 20 21 20 19 18 17 16 15 13 13 13 11 11 11 11 11 11 11 10 10 10 10 9 9 9 9 9 9 9 9 8
5 6 5 10 12 13 15 17 17 18 18 18 18 18 15 16 17 19 21 22 22 21 21 19 18 16 14 14 13 12 12 12 12 12 11 11 10 10 10 9 9 8 8 8 9 9 9 9 8
7 4 7 10 12 15 16 17 17 16 18 17 17 17 15 17 18 17 21 23 24 23 22 22 19 17 15 15 14 13 13 12 12 12 11 10 10 10 9 8 8 7 7 7 8 8 8 7 8
10 10 11 12 14 17 19 17 16 16 18 18 18 17 16 17 18 19 21 24 24 24 24 23 20 19 18 16 15 14 14 13 12 10 10 10 9 9 8 7 7 6 6 6 6 6 6 6 6
9 11 12 12 15 19 21 18 18 16 18 20 19 19 18 17 19 21 20 23 25 26 25 24 23 22 20 18 16 15 14 12 11 10 9 8 8 7 7 6 6 5 5 6 5 5 5 5 5
10 9 11 13 15 22 23 20 19 19 21 21 19 18 18 18 19 22 23 26 26 25 25 25 24 23 20 17 15 14 12 11 10 9 8 7 6 5 5 5 5 5 5 5 4 4 3 3 3
9 11 15 16 19 22 24 21 20 20 23 23 20 18 17 16 18 23 24 22 25 25 25 25 24 22 18 16 14 12 11 10 9 8 7 5 4 4 4 4 4 4 4 3 3 3 3 2 1
13 15 19 19 21 23 24 23 23 23 24 23 21 18 16 15 17 20 22 22 24 25 25 24 22 20 17 15 13 12 11 10 9 7 6 5 4 3 3 3 3 3 3 3 2 2 2 2 2
16 17 17 17 20 22 22 23 23 23 24 23 19 16 15 13 15 16 19 21 22 24 24 23 22 19 17 15 13 12 10 10 8 7 6 4 3 3 3 3 2 3 3 2 2 1 1 1 2
12 12 13 18 18 21 20 21 21 21 22 22 19 15 14 13 12 13 16 18 20 21 22 21 19 18 16 15 13 11 10 9 9 7 6 5 3 2 2 2 2 2 2 2 2 3 3 2 2
12 11 14 15 18 19 19 18 20 19 21 20 18 16 13 11 10 8 11 16 18 19 20 19 17 16 15 14 13 11 10 9 8 6 6 4 3 2 1 0 2 2 2 2 3 4 4 4 4
12 16 16 15 17 18 18 18 20 20 20 20 19 16 14 11 8 5 8 13 16 17 17 17 17 17 15 14 11 10 10 9 8 6 5 4 4 3 2 1 1 2 3 3 3 4 4 4 4
12 15 16 17 15 16 17 18 19 21 19 19 17 16 14 12 9 5 5 9 14 15 16 15 14 14 14 13 11 10 9 8 7 6 6 5 4 3 3 2 1 1 1 2 2 3 3 4 4
13 15 15 15 15 16 13 16 19 19 20 18 16 15 13 12 9 4 3 6 10 11 13 13 14 14 14 13 11 11 10 8 7 7 6 6 5 5 4 3 2 2 1 0 2 2 3 3 4
14 13 13 14 17 17 11 12 18 19 19 19 17 15 12 10 8 5 2 5 8 10 11 12 14 13 12 11 11 11 10 9 8 8 7 7 6 6 5 5 4 3 3 3 3 4 4 5 6
14 14 14 19 20 16 10 8 14 16 18 17 15 13 12 9 8 6 4 4 6 8 10 11 12 12 12 12 11 11 10 10 9 8 8 7 7 7 7 7 6 6 6 6 6 7 7 8 8
15 17 16 19 23 20 11 8 11 14 15 15 14 12 10 8 7 6 5 4 4 6 8 11 12 11 10 10 11 11 10 10 9 9 9 9 9 9 9 8 8 8 8 9 9 10 10 11 12
16 15 15 18 18 18 17 13 12 12 14 14 13 10 8 7 6 5 4 3 1 4 7 9 10 10 10 10 10 10 10 10 10 10 10 11 11 11 11 11 11 11 11 12 13 13 14 15 16
16 15 15 18 16 17 18 14 11 12 14 14 13 9 7 6 5 4 2 1 1 4 6 7 8 10 10 10 10 10 11 11 12 12 12 12 13 13 13 13 13 14 14 15 16 17 18 19 19
18 17 16 15 15 14 16 18 13 12 13 15 13 10 7 7 6 5 4 3 2 3 6 8 9 9 9 10 11 11 12 12 13 14 14 14 15 16 16 16 17 17 18 18 19 20 21 22 22
20 19 17 15 14 14 18 20 16 14 14 14 13 10 8 7 7 6 6 5 4 5 7 8 9 10 10 11 11 12 13 14 15 16 16 17 17 18 18 19 19 20 20 21 22 22 23 24 25
24 20 16 16 15 14 15 20 17 15 15 14 13 11 9 8 9 8 8 7 7 8 8 9 10 11 11 12 13 14 15 16 17 18 18 19 20 21 21 22 22 22 23 23 24 25 25 26 27
Wind_Direction
339 336 337 342 355 359 347 337 297 292 294 293 288 283 275 267 257 253 251 257 252 248 253 251 248 246 248 251 255 262 260 263 262 258 258 261 264 268 274 283 288 286 287 291 294 297 303 307 310
336 332 333 339 345 5 338 314 293 290 294 289 282 277 269 268 273 271 266 258 251 247 248 249 250 247 248 252 255 258 258 260 259 262 268 271 273 273 275 278 282 282 283 284 286 287 285 288 288
336 331 336 341 356 357 313 292 289 289 289 287 281 273 265 266 269 267 261 255 247 241 238 241 245 246 248 252 254 258 262 260 264 270 274 275 275 276 277 278 278 280 279 280 282 282 279 279 278
336 338 343 360 356 315 282 278 281 285 288 285 278 272 262 265 265 263 256 251 243 238 233 236 240 242 245 251 256 259 261 265 272 277 278 277 278 280 280 280 281 281 279 278 278 280 277 274 272
335 343 359 5 346 291 284 288 290 289 285 283 275 272 264 261 261 259 251 245 236 231 228 231 234 236 242 249 257 257 257 267 274 279 281 281 281 280 280 281 284 282 279 276 272 274 276 270 268
334 351 11 1 322 288 291 297 301 294 284 281 275 269 260 263 257 253 246 240 233 225 222 224 229 232 238 245 252 253 259 267 275 281 281 281 283 282 281 283 284 283 280 275 270 270 272 269 266
338 10 23 332 291 295 300 306 308 301 292 287 281 271 265 257 250 243 241 239 233 225 220 220 227 229 235 244 251 254 260 269 276 281 282 285 286 285 282 283 282 281 278 274 270 269 269 268 265
7 47 58 307 293 297 302 311 313 307 301 294 284 277 270 257 251 242 237 234 232 224 219 222 229 233 238 244 249 255 263 270 276 281 283 286 287 286 285 284 283 281 276 272 269 266 268 266 263
30 56 30 290 291 299 307 314 315 312 305 297 290 285 272 259 249 239 234 233 230 223 220 224 231 233 239 244 248 255 263 270 276 280 282 285 287 289 289 285 286 283 278 274 270 269 270 266 260
31 43 327 298 307 317 321 321 318 315 311 300 295 290 278 266 258 249 240 235 230 224 224 226 232 236 241 245 251 257 264 270 277 281 283 285 286 289 289 287 286 284 281 277 275 275 274 269 257
12 4 317 321 328 332 334 329 323 316 307 305 303 293 281 271 260 250 244 234 228 223 224 226 229 234 239 247 254 259 265 271 277 282 283 287 289 292 291 287 287 288 285 282 282 280 271 266 256
351 349 337 336 337 341 340 334 325 318 314 312 308 298 281 271 257 247 243 232 225 224 226 226 229 236 243 250 255 260 265 270 275 280 280 285 291 294 294 291 289 287 285 285 285 290 276 267 253
353 340 330 328 336 341 341 336 330 325 327 320 310 301 287 272 256 243 237 230 229 225 227 228 230 235 241 249 254 259 266 266 270 273 277 283 290 295 295 293 292 289 289 287 290 288 286 268 258
12 338 311 314 333 340 340 335 329 328 329 326 317 306 292 276 258 243 236 231 227 226 226 229 231 235 239 245 252 257 261 264 265 267 273 280 284 288 290 293 295 300 296 294 299 300 304 291 274
1 328 325 340 341 335 336 333 332 329 331 328 321 309 296 281 261 250 240 229 225 225 228 230 229 231 236 242 246 252 257 258 257 261 267 271 276 286 293 298 301 305 301 300 304 313 322 326 303
357 349 346 343 334 329 334 330 331 334 333 332 326 321 306 282 265 253 241 233 229 225 227 227 229 232 233 239 245 250 252 250 249 248 252 261 269 284 298 304 313 317 317 320 322 324 326 332 339
357 348 337 322 320 326 330 325 333 336 337 336 332 328 324 305 274 254 242 235 228 227 228 230 229 227 230 236 240 244 243 243 238 240 241 253 259 280 302 312 323 333 336 345 1 13 9 4 2
324 321 314 309 316 325 328 326 332 339 341 339 338 334 330 321 294 261 242 231 227 227 229 229 226 225 229 231 233 236 235 232 234 235 236 242 244 265 298 327 3 9 17 30 37 41 35 25 19
304 314 310 312 318 322 331 330 332 337 345 344 343 341 335 328 313 279 244 230 227 226 223 218 221 222 224 225 228 229 222 221 223 222 222 224 227 233 236 39 49 45 49 50 53 50 44 37 29
315 315 313 317 315 318 326 329 331 339 348 346 345 346 345 337 326 295 242 224 220 220 218 215 217 218 218 222 221 213 211 212 210 212 218 216 216 211 193 160 105 86 74 68 61 55 48 40 34
307 306 311 314 317 314 315 322 329 340 346 347 345 348 352 351 345 312 240 219 212 213 213 207 207 207 211 212 208 207 206 208 210 213 215 212 211 206 195 185 162 135 100 72 52 43 36 29 24
295 297 302 309 308 299 302 313 327 338 346 350 350 350 354 357 358 354 240 210 205 206 202 200 204 207 207 204 204 207 210 213 213 213 213 208 206 206 207 208 204 208 207 4 359 357 360 360 355
288 297 303 306 298 288 302 314 323 334 343 349 352 353 355 2 10 23 91 177 192 196 196 198 203 202 201 198 203 207 211 215 214 209 210 211 211 215 222 225 229 237 252 282 300 308 317 322 322
298 308 314 315 313 311 336 326 318 329 340 345 351 353 355 9 21 33 64 145 171 185 194 197 201 198 199 200 205 209 213 215 212 211 215 219 223 229 234 235 241 251 263 276 284 290 296 301 305
291 302 311 315 320 328 343 308 306 327 336 338 343 349 358 6 14 30 48 81 143 180 196 197 197 196 197 203 211 213 215 215 214 217 222 227 232 238 242 246 253 261 269 276 283 287 291 294 297
284 292 296 301 313 316 310 299 304 327 333 333 337 342 350 357 7 21 44 62 130 174 186 193 199 201 204 210 214 215 215 218 223 228 232 235 240 245 250 255 261 267 273 279 283 287 290 292 294
277 279 288 299 305 307 301 296 299 323 325 327 328 331 334 338 346 355 7 10 254 199 197 204 208 210 213 218 222 226 227 230 234 237 239 243 247 251 256 260 265 270 276 280 284 286 288 291 292
275 278 279 282 287 295 298 297 296 306 318 321 321 317 316 323 319 319 315 295 270 227 219 223 218 220 222 226 232 238 239 240 241 243 246 250 254 257 260 264 269 274 277 280 283 286 289 291 292
266 272 279 276 271 278 296 300 305 305 310 317 314 307 298 304 302 304 297 286 271 243 232 231 230 231 234 239 245 248 250 250 250 252 254 256 260 263 266 269 272 276 279 282 285 287 289 290 291
259 257 265 274 274 271 276 285 291 298 303 307 306 300 297 294 295 293 287 282 275 263 250 247 248 248 249 252 254 256 257 257 257 258 260 262 265 267 270 273 275 278 280 282 284 286 287 287 288
Height
5902 5901 5900 5900 5901 5899 5896 5895 5896 5895 5893 5893 5892 5891 5889 5887 5886 5887 5887 5888 5891 5892 5894 5895 5896 5898 5899 5900 5900 5901 5901 5902 5902 5902 5902 5902 5902 5902 5902 5902 5902 5902 5901 5901 5901 5901 5900 5900 5900
5901 5900 5900 5900 5900 5898 5899 5897 5894 5893 5893 5891 5890 5889 5888 5886 5884 5884 5886 5887 5889 5891 5893 5894 5895 5896 5898 5899 5900 5900 5901 5901 5901 5901 5901 5901 5901 5901 5901 5901 5901 5901 5901 5901 5900 5900 5900 5899 5899
5900 5899 5899 5899 5898 5899 5900 5897 5894 5892 5891 5889 5888 5887 5886 5883 5883 5884 5885 5886 5888 5889 5891 5893 5894 5896 5897 5898 5899 5899 5900 5900 5900 5901 5901 5901 5900 5900 5900 5900 5900 5900 5900 5899 5899 5899 5899 5899 5898
5899 5899 5898 5899 5899 5899 5899 5896 5892 5890 5888 5887 5885 5884 5883 5882 5882 5882 5883 5884 5886 5888 5890 5892 5893 5895 5896 5897 5898 5899 5899 5899 5899 5900 5900 5899 5899 5899 5899 5899 5899 5898 5898 5898 5898 5898 5898 5898 5897
5898 5898 5898 5897 5897 5899 5896 5892 5890 5888 5885 5884 5882 5879 5878 5880 5880 5880 5881 5882 5885 5887 5888 5890 5892 5894 5895 5896 5897 5898 5898 5898 5899 5899 5899 5898 5898 5898 5898 5897 5897 5897 5897 5897 5897 5897 5897 5896 5896
5897 5897 5897 5898 5899 5897 5894 5889 5887 5885 5882 5880 5877 5874 5874 5877 5877 5877 5878 5880 5882 5885 5887 5889 5891 5892 5894 5895 5896 5897 5897 5897 5897 5897 5897 5897 5897 5896 5896 5896 5896 5895 5895 5895 5895 5895 5895 5895 5895
5897 5895 5896 5900 5899 5895 5891 5887 5885 5882 5879 5876 5874 5872 5873 5874 5873 5874 5876 5878 5880 5883 5885 5887 5889 5891 5892 5894 5895 5895 5896 5896 5896 5896 5896 5896 5896 5895 5895 5894 5894 5894 5893 5893 5893 5893 5893 5893 5893
5895 5895 5896 5898 5896 5893 5889 5885 5882 5880 5877 5874 5872 5870 5871 5871 5871 5872 5873 5875 5877 5880 5882 5885 5887 5889 5891 5892 5893 5894 5895 5895 5895 5895 5895 5895 5894 5893 5893 5893 5892 5892 5892 5892 5892 5892 5892 5892 5892
5894 5895 5895 5896 5893 5890 5887 5883 5880 5877 5874 5871 5868 5866 5867 5867 5869 5869 5870 5872 5874 5877 5880 5882 5885 5887 5889 5890 5891 5893 5893 5894 5894 5893 5893 5893 5892 5892 5891 5891 5891 5891 5890 5890 5890 5890 5890 5890 5890
5895 5894 5895 5893 5891 5888 5884 5881 5878 5874 5871 5868 5865 5864 5864 5864 5865 5866 5867 5869 5871 5874 5877 5880 5882 5885 5887 5888 5890 5891 5892 5892 5892 5892 5892 5891 5891 5890 5890 5889 5889 5889 5889 5888 5888 5888 5888 5888 5889
5894 5894 5893 5890 5888 5885 5882 5878 5875 5872 5868 5864 5861 5861 5860 5861 5861 5862 5863 5865 5867 5870 5874 5877 5880 5882 5884 5886 5888 5889 5890 5890 5890 5890 5890 5890 5889 5889 5888 5888 5888 5887 5887 5887 5887 5886 5886 5886 5887
5893 5892 5891 5889 5886 5883 5880 5877 5873 5870 5866 5862 5859 5858 5858 5858 5858 5859 5858 5859 5863 5866 5870 5874 5877 5880 5882 5884 5885 5887 5888 5888 5888 5888 5888 5888 5888 5887 5887 5887 5886 5886 5886 5885 5885 5885 5885 5885 5885
5893 5892 5890 5887 5884 5882 5879 5875 5871 5867 5864 5860 5857 5855 5854 5854 5854 5855 5855 5856 5858 5862 5867 5871 5874 5877 5879 5881 5883 5885 5886 5886 5887 5887 5887 5887 5887 5886 5886 5885 5885 5884 5884 5884 5884 5884 5884 5884 5883
5892 5890 5887 5884 5882 5880 5877 5873 5869 5864 5862 5858 5855 5852 5850 5849 5849 5849 5850 5852 5854 5857 5863 5867 5870 5873 5876 5878 5880 5882 5883 5884 5885 5885 5886 5886 5886 5885 5885 5885 5884 5884 5884 5884 5884 5883 5883 5883 5884
5889 5887 5884 5882 5881 5879 5877 5872 5867 5863 5860 5856 5851 5848 5846 5845 5845 5843 5843 5844 5849 5854 5860 5863 5866 5870 5873 5876 5878 5880 5881 5882 5883 5884 5884 5885 5885 5885 5884 5884 5884 5883 5883 5883 5883 5883 5883 5883 5883
5888 5886 5883 5882 5880 5878 5877 5871 5866 5861 5857 5852 5848 5844 5842 5841 5841 5839 5838 5842 5846 5850 5856 5860 5863 5867 5870 5873 5875 5877 5879 5881 5882 5883 5884 5884 5884 5884 5884 5883 5883 5883 5883 5883 5883 5883 5883 5883 5883
5888 5887 5886 5884 5881 5878 5875 5870 5865 5860 5856 5851 5847 5843 5841 5839 5837 5836 5836 5839 5844 5848 5852 5856 5861 5864 5868 5871 5873 5876 5878 5879 5881 5882 5883 5883 5883 5883 5883 5883 5883 5883 5882 5882 5882 5882 5882 5883 5883
5890 5890 5888 5884 5881 5878 5874 5869 5864 5860 5855 5851 5846 5843 5840 5838 5836 5835 5836 5838 5843 5846 5849 5854 5858 5862 5866 5869 5872 5874 5876 5878 5880 5881 5882 5882 5883 5883 5883 5883 5883 5883 5882 5882 5882 5882 5882 5882 5882
5889 5887 5885 5882 5879 5877 5873 5868 5863 5857 5854 5850 5847 5843 5840 5837 5835 5834 5835 5837 5841 5844 5848 5852 5856 5860 5864 5867 5870 5872 5874 5876 5878 5879 5880 5881 5882 5882 5882 5882 5883 5883 5883 5883 5883 5882 5882 5882 5882
5887 5885 5883 5881 5879 5875 5871 5867 5862 5856 5853 5850 5847 5843 5840 5838 5835 5833 5834 5837 5840 5843 5846 5850 5854 5858 5862 5865 5868 5870 5873 5875 5877 5878 5879 5880 5881 5881 5882 5882 5883 5883 5883 5883 5883 5883 5883 5883 5882
5886 5884 5882 5880 5877 5873 5869 5865 5861 5857 5853 5851 5847 5844 5841 5838 5836 5834 5835 5836 5839 5842 5845 5849 5853 5856 5860 5863 5867 5869 5872 5874 5876 5877 5878 5879 5880 5881 5881 5882 5883 5883 5883 5883 5883 5883 5883 5883 5883
5884 5882 5880 5877 5874 5870 5867 5864 5860 5856 5853 5851 5848 5845 5842 5839 5837 5835 5835 5836 5839 5842 5845 5849 5852 5855 5859 5862 5866 5868 5871 5873 5875 5876 5877 5878 5879 5880 5881 5882 5882 5883 5883 5883 5883 5883 5883 5882 5882
5881 5879 5877 5873 5869 5864 5862 5862 5859 5856 5853 5851 5849 5846 5843 5841 5839 5837 5837 5838 5840 5843 5846 5849 5852 5855 5858 5862 5865 5867 5870 5872 5873 5875 5876 5877 5878 5879 5880 5881 5882 5882 5882 5882 5882 5882 5882 5882 5882
5878 5876 5874 5869 5864 5859 5859 5860 5858 5856 5854 5852 5850 5848 5845 5843 5842 5840 5839 5840 5841 5843 5846 5849 5852 5855 5858 5861 5864 5866 5868 5870 5872 5873 5875 5876 5877 5878 5879 5880 5881 5881 5881 5881 5881 5881 5881 5880 5880
5876 5874 5872 5869 5863 5859 5858 5859 5857 5856 5855 5853 5851 5849 5847 5845 5844 5843 5842 5842 5842 5843 5846 5849 5852 5855 5857 5860 5862 5865 5867 5868 5870 5872 5873 5875 5876 5877 5878 5878 5879 5879 5879 5879 5879 5879 5879 5878 5878
5873 5872 5871 5867 5865 5862 5858 5856 5855 5855 5854 5853 5851 5850 5848 5847 5845 5845 5844 5844 5845 5845 5846 5849 5852 5854 5857 5859 5861 5863 5865 5867 5868 5870 5871 5872 5874 5875 5875 5876 5876 5877 5877 5877 5876 5876 5876 5875 5875
5870 5869 5868 5865 5863 5862 5858 5852 5851 5853 5853 5853 5851 5849 5848 5847 5847 5846 5845 5846 5845 5846 5847 5849 5851 5854 5856 5858 5860 5862 5863 5865 5866 5867 5869 5870 5871 5872 5872 5873 5873 5873 5873 5873 5873 5873 5872 5872 5871
5867 5866 5865 5863 5861 5860 5857 5853 5850 5851 5851 5851 5850 5849 5848 5848 5847 5846 5846 5846 5846 5846 5847 5848 5850 5852 5854 5856 5858 5859 5861 5862 5863 5865 5866 5867 5868 5868 5869 5869 5869 5869 5869 5869 5868 5868 5868 5867 5866
5862 5861 5860 5860 5859 5858 5855 5853 5849 5849 5849 5849 5848 5848 5846 5847 5846 5846 5845 5846 5846 5846 5847 5848 5849 5851 5853 5854 5856 5857 5858 5859 5860 5861 5862 5863 5864 5864 5864 5864 5864 5864 5864 5864 5863 5863 5862 5861 5860
5855 5855 5856 5856 5855 5855 5854 5853 5848 5846 5847 5847 5847 5846 5845 5845 5845 5845 5844 5844 5845 5845 5845 5846 5848 5849 5850 5852 5853 5854 5855 5855 5856 5857 5857 5858 5859 5859 5859 5859 5859 5858 5858 5857 5857 5856 5855 5855 5854